{"data":{"norad_id":67775,"intl_designator":"2026-030M","name":"KUIPER-00208","alt_names":[],"object_type":"PAYLOAD","status":"ACTIVE","operator":null,"country":"US","launch_date":"2026-02-12","launch_site_code":"FRGUI","launch_vehicle":null,"mission":null,"orbit_class":"UNKNOWN","rcs_meters":null,"size_class":null,"mass_kg":null,"dimensions":null,"purposes":[],"wikipedia_slug":null,"has_3d_model":false,"image_url":null,"decayed_at":null,"tle_current":{"epoch":"2026-05-24T18:32:17.224512Z","epoch_age_seconds":91066,"freshness":"FRESH","line1":"1 67775U 26030M   26144.77242158  .00002050  00000+0  32193-3 0  9993","line2":"2 67775  51.8972 232.9168 0006998 324.3474  35.7018 14.76531934 16493","mean_motion":14.76531934,"eccentricity":0.0006998,"inclination_deg":51.8972,"raan_deg":232.9168,"arg_perigee_deg":324.3474,"mean_anomaly_deg":35.7018,"bstar":0.00032193,"rev_number":1649,"period_min":97.525828384827,"perigee_km":635.38105798455,"apogee_km":645.20405198972,"semimajor_km":7018.4295549871,"source":"CELESTRAK","updated_at":"2026-05-25T13:38:07.257628Z"}}}